Wetbulb
71.54 75.05 78.19 78.26 78.22 78.79 78.07 78.03 77.90 78.11 78.06 78.60 79.12 79.35 78.93 78.66 78.37 78.55 78.10 77.98 78.06 78.00 77.98 77.80 77.44 77.25 77.17 76.95 77.16 76.97 76.34 76.74 76.50 77.07 76.41 76.31 75.72 75.74 75.64 75.07 76.04 74.25 75.81
73.46 75.56 78.67 78.94 78.73 78.17 78.29 78.35 78.17 78.50 78.17 78.05 78.31 79.05 78.48 78.00 77.63 77.45 78.09 77.86 77.54 77.43 77.72 77.59 76.82 77.04 76.48 76.51 76.86 76.80 76.41 76.63 76.50 76.46 75.96 76.07 75.85 76.18 75.89 76.54 76.16 75.00 75.66
73.55 75.40 77.17 78.86 78.19 77.93 78.47 78.36 78.47 78.62 78.30 78.61 78.90 78.08 77.68 77.62 77.71 76.67 76.46 77.51 77.78 77.34 77.34 76.88 77.36 76.65 76.93 75.90 75.73 75.92 75.74 76.26 76.37 75.61 75.80 73.85 73.49 76.22 75.46 75.21 76.15 75.59 74.77
73.80 74.21 76.16 78.27 78.72 78.30 78.60 78.60 78.72 78.47 78.00 78.34 78.04 77.98 77.70 77.53 77.35 77.90 76.79 76.27 77.06 77.23 77.02 76.21 76.60 76.46 75.85 75.62 75.70 75.76 75.21 75.65 75.05 75.19 74.71 73.67 73.69 76.11 74.91 75.76 75.32 75.59 74.04
73.17 74.62 75.96 78.59 78.47 77.62 77.94 78.48 78.52 78.41 77.88 78.11 78.19 77.77 77.03 76.01 76.13 76.35 76.62 76.21 76.87 76.95 76.30 75.93 76.18 76.12 75.54 74.88 75.37 75.78 76.11 75.90 75.64 75.85 74.52 72.97 71.48 75.77 75.50 75.31 75.44 75.57 74.20
73.51 75.20 77.75 78.26 77.82 78.06 78.25 78.86 78.10 78.23 77.86 77.56 76.82 76.40 76.29 76.43 76.07 75.96 76.05 76.59 77.04 76.74 76.60 76.43 76.16 75.44 74.77 74.85 75.48 76.33 77.10 76.55 76.35 74.18 74.25 72.78 69.49 75.95 75.61 76.14 75.70 75.10 75.57
72.76 74.80 76.55 78.91 79.18 78.91 78.62 78.59 78.52 77.99 77.17 77.19 76.86 77.43 77.94 77.77 77.72 77.37 77.40 76.87 76.81 76.56 76.20 75.82 75.16 74.68 74.46 75.05 75.82 77.16 77.44 76.65 74.69 73.69 73.31 70.62 71.24 76.64 76.66 76.63 75.65 73.96 74.62
72.07 74.89 75.79 78.34 78.89 78.76 78.45 78.10 78.87 77.76 76.69 76.32 76.56 77.76 77.93 77.89 77.18 76.75 76.12 76.18 76.23 76.31 76.12 75.79 75.27 74.99 75.35 75.85 77.09 77.37 77.60 76.59 74.68 73.37 72.99 70.65 74.22 76.89 76.37 76.54 75.99 74.49 72.84
73.50 74.29 74.87 76.25 76.94 78.46 78.50 78.87 78.92 78.23 76.59 76.67 76.12 76.98 77.09 77.23 77.19 76.81 77.33 77.33 76.89 76.67 76.28 75.85 75.74 76.01 76.72 77.58 77.76 77.94 77.70 77.08 74.60 73.11 73.76 73.08 76.12 77.35 76.76 76.84 76.12 75.20 74.69
72.67 74.02 73.80 74.73 74.88 75.03 76.18 79.03 79.23 78.19 77.46 76.83 75.96 75.49 75.74 75.93 75.96 76.18 77.31 77.00 77.03 76.40 75.71 75.68 76.27 77.70 77.94 78.06 78.11 78.19 77.79 77.04 72.56 73.17 73.24 73.80 76.19 76.94 76.36 76.95 76.49 76.08 76.09
71.00 72.84 73.94 73.76 73.23 73.68 74.55 76.02 77.95 77.17 77.18 77.18 76.94 76.74 76.61 74.40 74.07 74.94 75.83 77.52 77.32 76.88 76.99 77.23 76.87 75.72 77.58 77.09 77.80 78.39 78.67 74.60 72.16 73.91 73.53 75.42 76.27 77.37 77.57 77.43 77.36 77.07 76.06
69.46 71.25 72.59 73.54 73.72 73.14 74.55 73.58 73.33 74.45 74.46 75.13 74.56 74.04 74.72 74.81 74.36 76.09 75.71 77.40 78.20 78.70 78.36 78.74 76.80 76.20 76.74 73.47 74.42 75.50 74.60 74.74 73.11 73.45 74.38 75.73 76.88 77.48 77.58 77.51 76.80 77.23 77.04
70.48 71.33 72.07 73.39 74.23 72.40 71.39 72.22 73.36 73.66 73.17 74.38 74.75 74.63 74.49 74.43 74.51 72.64 70.78 72.05 74.00 77.16 75.10 76.72 75.84 74.70 73.43 73.53 73.33 72.26 72.00 74.33 71.96 72.82 73.80 75.71 76.69 77.47 77.69 77.15 77.42 77.38 77.58
69.59 70.91 72.34 73.03 73.13 72.66 70.68 72.48 73.17 73.89 73.32 73.76 73.75 73.01 73.13 72.90 73.70 72.37 72.57 73.43 74.45 74.60 74.20 73.08 73.46 73.30 73.29 72.51 71.28 70.89 72.03 71.20 71.50 72.07 73.17 77.24 77.33 77.54 77.78 77.76 77.36 76.91 77.73
69.94 71.50 72.54 72.62 72.78 73.53 72.92 75.24 74.32 72.73 73.35 73.89 73.54 72.40 72.44 73.06 73.93 72.93 73.23 74.33 75.37 74.45 73.79 71.12 70.57 70.92 71.51 70.68 71.38 71.83 68.47 67.80 67.72 69.79 72.02 78.70 77.92 77.40 78.13 78.11 77.49 76.86 77.05
70.75 70.81 73.11 72.90 72.87 73.72 73.23 74.58 74.73 73.06 72.70 71.53 71.95 72.78 73.20 73.94 74.75 74.09 73.71 74.30 72.74 72.19 70.76 71.06 71.89 72.32 71.47 71.91 70.90 69.29 69.59 69.31 68.25 68.18 70.48 73.25 77.44 77.83 77.97 77.96 78.04 77.19 77.07
71.07 72.66 72.64 72.91 73.28 72.94 73.09 74.23 74.00 74.15 72.48 71.43 69.48 73.03 74.49 74.98 74.44 73.85 74.72 74.67 72.26 71.46 72.24 73.06 74.11 71.61 70.48 70.43 69.35 70.06 68.19 68.78 67.81 67.81 67.04 67.12 68.81 77.84 78.01 77.99 77.90 77.48 77.13
71.43 71.07 72.37 74.41 73.19 72.75 73.04 73.93 74.04 73.50 72.64 71.60 71.11 73.97 74.53 74.35 74.94 73.97 74.55 73.06 71.26 71.41 72.54 70.96 70.69 70.30 68.91 68.43 68.34 67.18 66.84 68.40 67.85 68.04 68.19 68.01 67.82 68.41 75.72 78.26 77.60 77.15 77.04
70.69 72.07 71.12 71.58 72.98 72.78 72.88 73.46 72.68 72.25 72.78 71.48 72.61 74.93 74.67 75.45 75.90 74.39 73.35 74.00 71.10 71.33 73.31 72.01 71.54 71.23 68.71 66.70 67.53 65.07 66.71 66.55 66.55 69.21 66.92 67.82 67.88 68.24 68.34 75.14 77.48 76.90 77.08
71.81 73.03 72.39 72.43 72.40 72.73 73.28 72.54 73.03 72.17 71.71 72.12 73.18 74.54 75.46 75.87 74.36 73.80 72.35 74.23 71.47 70.97 72.65 72.47 72.32 72.36 68.51 67.08 66.24 66.90 65.77 66.72 67.24 66.73 66.77 68.11 66.16 67.41 66.86 67.44 70.57 72.50 76.37
72.79 73.39 73.80 73.30 72.11 72.71 72.44 72.24 71.60 71.54 71.36 72.06 72.98 74.00 74.72 74.99 73.41 73.64 71.87 72.38 73.36 71.33 72.50 73.06 72.78 69.20 67.48 66.72 63.14 63.90 65.73 66.56 65.04 65.22 66.38 66.10 66.00 65.98 65.35 67.12 69.00 66.51 67.81
72.64 73.02 73.37 73.71 75.17 73.25 74.08 73.16 72.34 71.72 72.64 73.03 72.57 72.85 75.81 74.49 73.39 74.82 73.00 72.76 72.35 73.77 73.05 71.84 71.94 68.61 67.17 66.00 64.35 63.29 60.61 62.90 63.00 65.69 65.53 66.28 65.44 65.48 64.85 65.57 64.88 65.23 66.54
72.48 73.29 73.23 73.89 75.00 74.54 74.12 73.73 73.57 73.70 72.42 72.49 72.46 72.52 74.64 74.93 74.78 74.38 74.00 72.71 72.91 74.33 72.68 72.46 70.98 68.20 63.80 65.30 66.21 62.70 60.46 57.91 61.02 64.01 64.85 63.93 62.78 63.37 62.83 63.36 62.75 63.05 64.07
72.21 73.85 74.10 74.29 74.42 74.71 74.30 73.34 71.90 71.39 70.34 70.98 71.44 72.96 74.27 74.92 74.89 75.87 75.45 74.39 74.48 74.38 73.51 72.50 71.33 68.03 66.35 64.43 65.08 67.09 65.14 63.46 60.68 59.07 60.07 60.90 61.34 60.61 59.93 60.33 60.89 61.02 61.49
72.67 73.37 74.26 74.32 74.52 75.32 74.48 73.93 73.21 71.99 70.98 71.63 72.05 70.85 72.59 74.28 75.20 75.53 75.42 74.85 75.09 75.79 74.48 70.52 68.70 67.03 66.74 65.91 65.09 64.63 64.14 63.57 61.15 57.27 53.40 56.36 58.44 58.05 59.14 59.64 60.09 60.82 61.81
72.08 73.31 74.01 74.10 74.12 75.01 75.27 74.29 73.41 72.22 71.70 71.18 70.82 71.43 71.94 74.98 75.39 75.19 75.90 75.60 75.12 74.64 72.58 70.83 68.92 68.06 67.17 67.34 66.78 66.00 64.93 59.96 58.11 56.27 53.76 53.52 54.16 56.68 59.84 59.96 59.29 60.45 61.48
MSLP
1015.89 1015.48 1015.35 1015.33 1015.46 1015.44 1015.58 1015.71 1015.81 1015.93 1016.03 1016.13 1016.13 1016.31 1016.36 1016.46 1016.55 1016.64 1016.84 1016.92 1017.09 1017.04 1017.34 1017.39 1017.56 1017.61 1017.53 1017.67 1017.55 1017.69 1017.81 1017.73 1017.66 1017.62 1017.72 1017.89 1018.11 1018.30 1018.41 1018.58 1018.70 1018.85 1018.99
1015.59 1015.58 1015.50 1015.55 1015.63 1015.71 1015.79 1016.03 1016.15 1016.31 1016.31 1016.39 1016.45 1016.63 1016.71 1016.80 1016.90 1016.95 1017.16 1017.24 1017.39 1017.50 1017.51 1017.56 1017.69 1017.79 1017.74 1017.73 1017.66 1017.72 1017.91 1017.77 1017.78 1017.82 1017.85 1017.93 1018.03 1018.13 1018.19 1018.21 1018.67 1018.83 1018.94
1015.60 1015.59 1015.60 1015.69 1015.86 1015.90 1016.05 1016.23 1016.44 1016.48 1016.52 1016.58 1016.71 1016.89 1017.01 1017.11 1017.20 1017.20 1017.41 1017.46 1017.61 1017.68 1017.74 1017.87 1017.88 1018.01 1017.93 1018.03 1017.89 1017.90 1018.04 1017.96 1017.97 1018.00 1017.92 1017.94 1018.08 1018.02 1018.02 1018.18 1018.38 1018.63 1018.81
1015.33 1015.56 1015.82 1015.97 1016.05 1016.21 1016.25 1016.45 1016.60 1016.65 1016.73 1016.85 1017.03 1017.17 1017.29 1017.41 1017.47 1017.49 1017.68 1017.83 1017.93 1018.00 1017.99 1018.09 1018.04 1018.21 1018.19 1018.19 1018.00 1018.09 1018.18 1018.11 1018.21 1018.19 1017.95 1017.99 1017.89 1017.98 1017.98 1018.12 1018.33 1018.52 1018.74
1015.34 1015.59 1015.93 1016.09 1016.19 1016.31 1016.55 1016.69 1016.81 1016.89 1017.05 1017.19 1017.33 1017.42 1017.53 1017.71 1017.77 1017.81 1017.90 1018.05 1018.15 1018.22 1018.34 1018.45 1018.37 1018.25 1018.30 1018.23 1018.07 1018.16 1018.13 1017.99 1018.11 1017.97 1017.98 1018.02 1017.99 1017.97 1018.02 1018.19 1018.42 1018.60 1018.81
1015.46 1015.78 1016.05 1016.26 1016.32 1016.43 1016.75 1016.85 1017.02 1017.13 1017.32 1017.49 1017.67 1017.74 1017.85 1017.95 1018.00 1018.04 1018.11 1018.24 1018.38 1018.49 1018.51 1018.50 1018.49 1018.48 1018.41 1018.30 1018.08 1018.10 1018.03 1018.02 1018.09 1018.03 1017.91 1018.17 1018.24 1018.13 1018.06 1018.23 1018.35 1018.65 1018.83
1015.62 1015.98 1016.23 1016.36 1016.45 1016.64 1016.88 1017.01 1017.13 1017.32 1017.61 1017.75 1017.85 1017.86 1017.92 1018.03 1018.04 1018.14 1018.25 1018.39 1018.44 1018.47 1018.55 1018.48 1018.42 1018.41 1018.34 1018.21 1017.98 1018.07 1018.22 1018.12 1018.11 1018.11 1018.01 1018.19 1017.95 1017.82 1017.93 1018.06 1018.39 1018.56 1018.70
1015.57 1016.08 1016.29 1016.51 1016.63 1016.77 1016.96 1017.11 1017.27 1017.49 1017.71 1017.89 1017.97 1018.03 1018.01 1018.13 1018.24 1018.31 1018.43 1018.43 1018.39 1018.36 1018.27 1018.23 1018.21 1018.24 1018.19 1018.05 1017.91 1017.99 1018.35 1018.43 1018.43 1018.04 1017.22 1017.69 1017.87 1017.71 1017.61 1017.78 1018.01 1018.42 1018.68
1015.44 1016.04 1016.51 1016.65 1016.66 1016.83 1017.03 1017.19 1017.38 1017.63 1017.89 1018.13 1018.17 1018.25 1018.44 1018.47 1018.44 1018.41 1018.35 1018.30 1018.23 1018.13 1018.15 1018.27 1018.36 1018.31 1018.11 1018.00 1017.91 1017.90 1018.11 1018.02 1017.97 1017.87 1016.94 1017.34 1017.75 1017.82 1017.63 1017.81 1017.85 1018.14 1018.47
1015.43 1015.97 1016.47 1016.62 1016.78 1016.94 1017.12 1017.28 1017.46 1017.68 1018.02 1018.01 1018.20 1018.33 1018.47 1018.60 1018.56 1018.47 1018.32 1018.27 1018.05 1017.90 1017.95 1018.07 1018.00 1017.81 1017.79 1017.80 1017.94 1017.97 1017.99 1017.66 1017.31 1017.57 1017.74 1018.36 1017.68 1017.59 1017.89 1017.80 1017.71 1017.69 1018.05
1015.41 1015.90 1016.17 1016.51 1016.73 1016.92 1017.21 1017.37 1017.53 1017.78 1017.93 1018.01 1018.06 1018.11 1018.43 1018.69 1018.53 1018.47 1018.41 1018.13 1018.03 1018.05 1018.07 1017.94 1018.05 1017.80 1017.83 1017.82 1017.70 1017.62 1017.40 1017.84 1017.41 1017.24 1018.23 1016.99 1017.89 1017.07 1017.64 1017.60 1017.57 1017.40 1017.66
1015.43 1015.75 1015.98 1016.22 1016.57 1016.81 1016.85 1017.25 1017.52 1017.72 1017.88 1017.91 1017.84 1018.05 1018.23 1018.31 1018.48 1018.31 1018.07 1017.88 1017.76 1017.75 1017.73 1017.61 1017.67 1017.63 1017.49 1017.50 1017.57 1017.10 1017.08 1017.18 1017.37 1016.97 1017.03 1017.31 1017.08 1017.32 1017.27 1017.17 1017.34 1017.12 1017.42
1015.08 1015.45 1015.69 1015.93 1016.11 1016.49 1016.62 1016.99 1017.28 1017.60 1017.83 1017.84 1017.68 1017.75 1017.94 1018.36 1018.29 1018.09 1017.83 1017.65 1017.66 1017.65 1017.59 1017.44 1017.54 1017.56 1017.44 1017.43 1017.35 1017.11 1017.09 1016.77 1016.75 1017.17 1017.27 1017.10 1017.25 1017.05 1016.96 1016.69 1016.61 1016.82 1017.11
1014.69 1014.91 1015.27 1015.43 1015.93 1016.27 1016.38 1016.57 1016.90 1017.13 1017.61 1017.75 1017.25 1017.27 1017.90 1017.86 1017.92 1017.65 1017.48 1017.51 1017.45 1017.33 1017.32 1017.31 1017.25 1017.11 1017.03 1017.05 1016.90 1016.83 1016.68 1016.55 1016.36 1016.25 1016.27 1016.15 1016.46 1016.56 1016.56 1016.32 1016.41 1016.50 1016.67
1014.29 1014.59 1014.99 1015.32 1015.78 1015.83 1016.06 1016.33 1016.32 1016.40 1016.81 1016.90 1017.07 1017.08 1017.20 1017.49 1017.32 1017.25 1017.13 1017.10 1017.02 1017.15 1017.25 1017.27 1017.09 1016.88 1016.75 1016.70 1016.34 1016.35 1016.18 1015.89 1015.80 1015.82 1016.03 1015.81 1015.84 1015.79 1015.76 1015.69 1016.17 1016.42 1016.42
1013.91 1014.32 1014.65 1015.13 1015.31 1015.61 1016.10 1016.01 1015.94 1016.07 1016.45 1016.74 1016.95 1017.05 1017.04 1017.11 1016.90 1016.83 1017.23 1016.96 1016.85 1016.91 1016.73 1016.67 1017.01 1017.10 1017.03 1016.75 1016.38 1016.13 1016.05 1015.83 1015.75 1015.65 1015.64 1015.56 1015.44 1015.48 1015.44 1015.65 1015.68 1015.95 1016.03
1013.43 1013.95 1014.39 1014.81 1014.92 1015.51 1015.94 1015.86 1015.89 1016.03 1016.10 1016.35 1016.41 1016.63 1016.74 1016.85 1016.74 1016.95 1017.07 1017.10 1017.02 1016.69 1016.39 1016.75 1016.83 1016.99 1016.79 1016.52 1016.44 1016.23 1016.09 1015.74 1015.49 1015.36 1015.29 1015.22 1015.19 1015.05 1015.09 1015.23 1015.39 1015.54 1015.65
1012.93 1013.55 1014.08 1014.52 1014.98 1015.46 1015.96 1016.05 1016.08 1016.11 1016.23 1016.31 1016.25 1016.50 1016.50 1016.55 1016.72 1016.93 1017.14 1017.10 1016.89 1016.71 1016.75 1016.89 1017.01 1016.99 1017.06 1017.00 1016.81 1016.42 1016.16 1015.91 1015.59 1015.35 1015.09 1014.95 1014.91 1014.89 1015.00 1014.93 1015.07 1015.33 1015.41
1012.24 1013.05 1013.61 1014.05 1014.70 1015.25 1015.64 1015.87 1016.02 1016.05 1016.17 1015.90 1015.89 1015.99 1015.96 1016.19 1016.39 1016.73 1016.82 1016.75 1016.59 1016.56 1016.84 1016.85 1017.05 1017.28 1017.45 1017.29 1016.92 1016.41 1016.19 1015.95 1015.81 1015.11 1015.12 1015.01 1014.93 1014.75 1014.91 1014.82 1014.80 1014.94 1015.08
1011.76 1012.46 1013.08 1013.66 1014.29 1014.88 1015.37 1015.75 1016.05 1016.12 1015.97 1015.71 1015.71 1015.81 1015.66 1015.89 1016.05 1016.23 1016.55 1016.66 1016.39 1016.80 1017.34 1017.03 1017.16 1017.37 1017.33 1017.25 1016.96 1016.52 1016.09 1015.77 1015.76 1015.85 1015.61 1015.01 1014.83 1014.79 1014.76 1014.65 1014.79 1014.87 1014.89
1011.46 1012.10 1012.56 1013.22 1013.87 1014.55 1015.13 1015.56 1015.89 1016.10 1015.93 1015.68 1015.42 1015.55 1015.69 1015.46 1015.61 1015.86 1016.04 1016.38 1016.54 1016.69 1016.77 1016.80 1017.14 1017.42 1017.47 1017.19 1017.20 1016.99 1016.16 1015.73 1015.57 1015.67 1015.47 1015.40 1014.91 1014.83 1014.67 1014.58 1014.52 1014.53 1014.42
1010.97 1011.59 1012.17 1012.59 1013.21 1013.80 1014.33 1014.80 1015.22 1015.50 1015.47 1015.27 1014.92 1014.83 1014.89 1014.91 1015.21 1015.44 1015.85 1016.26 1016.46 1016.64 1016.71 1016.82 1017.06 1017.51 1017.53 1017.22 1017.49 1017.52 1017.15 1016.45 1015.78 1015.65 1015.68 1015.63 1015.54 1015.28 1015.07 1014.72 1014.67 1014.59 1014.45
1010.48 1011.12 1011.62 1012.12 1012.67 1013.19 1013.73 1014.33 1014.81 1015.13 1015.13 1015.15 1014.98 1014.82 1014.81 1014.71 1014.94 1015.23 1015.51 1015.77 1016.14 1016.40 1016.62 1016.92 1017.06 1017.37 1017.59 1017.35 1017.30 1017.50 1017.52 1017.50 1017.14 1016.35 1016.08 1015.81 1015.51 1015.51 1015.31 1014.95 1014.68 1014.59 1014.37
1009.47 1010.27 1010.97 1011.66 1012.25 1012.79 1013.33 1013.84 1014.39 1014.61 1014.85 1014.70 1014.52 1014.32 1014.18 1014.22 1014.51 1014.79 1015.07 1015.34 1015.73 1016.23 1016.43 1016.52 1016.69 1016.85 1017.23 1017.60 1017.35 1017.19 1017.24 1017.53 1017.65 1017.46 1016.57 1016.32 1016.15 1015.99 1015.67 1015.26 1014.93 1014.42 1014.03
1008.49 1009.40 1010.15 1010.88 1011.61 1012.20 1012.87 1013.32 1013.85 1014.14 1014.22 1014.14 1014.13 1013.97 1014.07 1014.17 1014.09 1014.28 1014.55 1014.95 1015.35 1015.58 1015.78 1016.22 1016.66 1016.83 1016.77 1017.25 1017.63 1017.59 1017.43 1017.31 1017.42 1017.81 1017.71 1017.12 1016.19 1016.20 1015.83 1015.52 1014.86 1014.57 1014.02
1007.67 1008.57 1009.44 1010.19 1010.85 1011.47 1012.11 1012.64 1013.09 1013.45 1013.65 1013.85 1013.85 1013.93 1013.83 1013.82 1013.99 1013.93 1014.02 1014.25 1014.60 1015.00 1015.39 1015.65 1015.99 1016.48 1016.74 1016.91 1017.07 1017.32 1017.55 1017.89 1017.97 1017.91 1017.93 1017.63 1017.23 1016.49 1015.57 1015.21 1015.13 1014.43 1014.02
Wind_Speed
2 3 11 12 13 15 15 14 14 14 14 13 13 14 14 14 14 14 12 12 11 12 13 13 12 12 12 9 10 10 10 11 12 12 11 12 12 12 9 6 13 10 11
5 5 12 12 13 14 15 14 13 12 12 12 11 11 14 13 13 14 12 12 11 12 13 12 11 11 10 8 7 8 6 9 9 10 9 9 9 11 12 12 12 10 10
6 7 10 13 13 14 13 14 12 13 12 11 11 12 12 12 12 13 12 12 12 12 12 11 10 9 9 5 4 4 3 5 6 8 7 5 4 9 11 11 12 10 9
10 7 8 11 13 14 13 11 11 13 12 12 12 12 14 12 12 12 13 12 11 11 11 10 10 8 7 3 2 3 2 4 1 2 2 3 5 10 11 11 10 10 8
7 10 9 13 13 13 11 10 10 12 12 11 13 13 12 11 11 12 12 11 10 10 10 8 8 8 4 2 4 7 6 2 4 6 7 7 5 10 12 11 10 9 9
8 10 11 12 13 12 10 11 12 11 11 11 11 12 12 11 11 12 11 10 10 9 8 7 6 4 1 3 7 5 8 9 7 4 5 5 5 11 12 11 11 9 11
12 9 8 11 12 12 11 10 10 12 11 11 11 12 11 12 11 11 10 10 8 7 6 4 3 3 3 6 9 8 8 11 5 4 2 5 7 14 14 13 10 9 9
14 10 9 12 12 11 11 10 9 12 12 11 11 11 11 11 11 10 9 8 7 6 6 6 5 5 6 8 11 11 9 12 9 8 5 6 10 14 16 14 13 10 9
14 10 7 7 10 12 11 10 9 11 10 9 9 9 8 9 10 11 10 9 8 8 7 5 4 6 8 9 10 12 13 13 4 2 2 2 11 12 15 15 15 13 11
14 11 9 7 6 6 6 9 9 9 9 9 7 6 7 8 9 10 10 9 9 10 8 6 7 8 8 10 12 13 12 10 5 9 6 6 12 15 14 15 15 14 12
11 11 10 8 8 7 6 6 7 8 8 8 7 5 6 3 6 8 8 10 9 8 7 7 5 8 8 10 13 12 12 1 3 3 4 14 19 16 17 15 15 15 15
12 12 10 8 7 8 7 6 6 6 5 5 5 4 5 6 5 7 7 8 9 10 9 10 9 6 6 4 3 3 3 5 3 4 4 20 16 19 18 16 14 13 15
13 10 10 11 9 8 6 5 3 3 3 4 7 6 4 1 4 4 2 2 3 8 3 6 6 4 5 4 4 3 4 6 3 5 10 19 18 15 13 13 15 14 14
8 9 11 10 8 7 5 5 5 6 5 4 5 5 5 3 4 4 3 3 4 3 5 4 3 5 6 6 7 6 6 4 3 2 5 9 15 12 13 12 12 13 14
10 10 12 9 7 6 5 3 3 6 6 5 5 5 3 3 3 1 3 1 2 4 3 3 4 3 5 5 5 5 5 4 4 3 1 10 14 14 14 12 12 12 12
11 10 14 9 8 5 3 1 1 2 5 5 5 4 5 3 2 3 4 5 1 4 4 3 1 4 4 4 5 3 3 2 3 2 1 4 10 11 14 10 12 12 11
10 13 14 10 8 7 4 2 1 2 1 1 3 7 6 5 5 1 2 3 3 3 1 2 2 1 3 4 4 5 4 4 4 4 4 3 2 11 14 12 12 11 10
14 14 13 11 9 7 5 2 2 3 2 4 3 5 7 6 6 3 2 3 5 2 3 2 2 4 4 4 4 4 4 5 6 5 4 3 2 2 3 9 9 9 10
12 13 13 11 13 10 7 5 5 5 4 5 3 4 7 7 6 4 2 2 4 2 3 1 3 3 2 4 3 4 4 4 5 3 5 6 2 2 3 1 7 9 10
14 12 14 10 13 12 7 5 3 4 4 5 3 4 7 6 7 5 3 4 2 3 1 1 3 2 1 1 3 5 4 4 2 4 5 3 1 5 2 2 1 1 6
15 13 13 12 13 10 6 6 4 4 4 4 5 7 8 7 7 6 3 2 3 1 4 3 2 1 3 3 2 4 6 2 5 4 4 4 4 3 3 2 2 2 3
17 15 11 11 13 12 8 7 4 4 4 6 5 5 8 8 8 5 6 3 2 2 2 2 3 1 2 1 1 0 3 5 5 6 4 4 4 4 5 6 6 6 4
16 16 14 12 9 10 9 5 3 3 3 2 4 4 6 7 7 6 6 5 4 1 1 2 2 3 1 3 2 2 2 3 4 3 6 5 7 4 5 5 6 6 5
16 15 15 13 11 9 8 7 8 8 5 4 5 4 5 8 8 7 7 6 4 2 2 2 4 4 3 2 3 1 1 3 1 4 4 3 4 5 6 6 6 8 7
18 17 15 16 14 13 12 9 7 10 5 4 3 6 5 5 7 8 7 7 6 5 4 6 3 2 3 2 2 2 2 3 1 2 3 6 5 2 3 4 6 6 8
16 17 16 17 16 15 14 14 12 10 8 6 7 4 4 4 7 8 8 8 7 6 6 5 5 4 3 2 2 1 1 1 3 1 1 2 3 5 10 5 4 6 6
Wind_Direction
258 109 118 110 97 93 92 95 96 95 91 84 77 81 84 86 88 92 90 89 92 100 104 101 102 97 93 92 99 96 101 100 95 91 90 96 100 92 84 134 110 109 108
146 121 127 113 104 101 100 95 100 103 101 97 88 85 91 95 97 96 93 96 102 101 106 105 104 102 100 97 94 103 102 109 107 106 99 99 106 102 84 101 121 113 111
138 134 123 114 109 109 103 88 102 100 103 103 95 97 100 101 102 104 104 98 98 99 108 109 101 101 97 96 104 107 119 108 139 121 138 136 134 118 107 107 116 113 111
144 133 120 121 117 113 105 104 99 100 103 103 107 105 103 107 100 95 108 103 99 101 113 112 105 99 89 78 16 21 42 68 352 174 159 208 168 139 126 124 124 124 123
154 120 132 127 119 116 115 112 106 105 106 111 107 110 108 107 109 106 105 106 104 102 103 109 112 106 103 345 319 329 314 324 293 240 210 205 199 154 139 135 139 145 143
132 116 127 131 128 122 120 115 120 113 110 110 114 112 113 114 111 108 107 106 104 105 112 109 97 102 71 297 297 299 309 316 320 306 333 167 162 159 150 156 155 136 146
119 123 129 131 124 126 131 128 137 119 121 121 124 123 124 112 120 119 118 112 119 122 122 123 147 195 239 274 282 290 300 305 307 276 223 183 171 162 160 150 155 158 161
130 126 130 128 131 130 125 126 119 129 131 135 137 136 131 135 129 127 126 132 139 153 172 188 205 233 259 277 292 296 304 308 334 319 231 164 192 171 164 164 161 165 170
129 128 138 136 136 133 132 130 135 138 138 136 145 149 146 142 145 150 155 161 170 184 200 218 257 278 281 284 287 294 304 310 297 283 233 105 190 184 171 173 169 170 176
133 144 147 142 137 142 140 139 140 151 140 149 149 158 169 175 173 180 179 187 198 205 199 216 246 255 257 266 271 276 277 285 318 79 19 331 190 189 191 186 180 174 184
145 150 151 163 165 152 141 163 160 163 156 165 146 183 191 201 214 198 201 208 210 231 229 234 226 265 289 306 294 271 273 229 192 172 157 198 225 191 200 196 191 181 188
148 161 159 164 168 155 166 163 179 184 183 188 177 181 221 203 207 211 185 210 234 233 239 239 238 251 259 240 290 309 272 237 259 184 188 205 207 205 198 195 200 191 196
154 166 161 166 167 175 160 176 185 184 192 205 215 170 176 126 223 219 208 209 222 248 240 243 239 252 278 236 240 261 258 253 216 162 202 220 212 213 210 204 198 198 204
167 177 164 171 158 172 181 185 183 189 182 200 188 176 151 184 215 226 230 235 220 216 237 237 219 246 248 246 229 223 243 244 272 225 225 198 205 214 224 216 214 214 204
186 184 158 157 155 152 200 184 203 187 167 178 172 189 149 125 236 228 281 279 238 178 210 206 207 265 288 303 292 246 245 285 294 304 172 202 206 212 218 218 223 227 216
186 178 150 156 154 154 169 157 336 114 126 161 175 178 174 154 261 286 32 337 156 162 193 205 202 289 307 305 351 346 325 309 312 352 184 219 225 224 227 225 227 225 226
182 156 152 156 159 163 190 179 268 309 72 206 193 190 180 174 235 285 290 309 279 234 266 346 337 300 28 346 348 344 336 322 320 304 313 294 269 244 232 230 236 230 237
158 156 161 161 162 165 180 200 238 286 301 260 255 187 176 185 209 217 273 220 244 309 58 124 117 31 357 345 313 321 341 329 315 303 280 262 254 292 265 238 241 241 250
168 156 168 162 167 171 181 195 209 244 267 260 252 199 181 192 211 206 182 197 238 65 105 117 53 71 323 330 316 323 329 312 310 299 334 313 308 18 75 284 227 229 243
172 168 174 168 169 173 176 179 205 223 246 259 245 203 189 185 190 212 182 195 252 81 126 90 88 349 247 257 332 328 310 304 347 359 332 309 20 83 64 53 82 287 241
174 173 169 164 172 168 175 180 189 201 228 249 248 196 214 184 188 204 206 124 275 292 209 170 105 33 316 353 18 337 314 53 67 14 343 346 48 350 345 7 158 244 247
170 175 173 171 164 179 174 184 175 185 221 225 236 234 190 177 187 173 176 220 231 234 42 148 140 273 283 26 227 196 337 322 345 348 334 349 11 352 338 349 338 311 290
168 179 182 179 171 174 174 160 181 206 259 218 234 242 203 178 181 183 191 206 226 207 254 154 130 162 237 320 352 187 346 249 342 329 329 338 7 357 354 331 333 334 319
180 175 177 179 178 182 172 181 192 216 213 216 214 213 188 181 190 190 191 197 211 216 175 188 177 162 125 255 326 351 165 177 236 319 333 330 356 351 334 334 330 316 302
178 180 178 182 185 184 191 195 196 211 206 218 235 226 207 205 191 189 191 196 202 210 173 147 154 173 156 172 179 331 335 347 59 138 283 326 333 293 292 305 302 318 309
179 179 182 184 190 188 186 200 208 204 203 208 235 230 233 198 196 195 196 199 204 176 160 167 168 193 205 197 192 248 170 165 301 340 327 285 243 310 319 334 316 299 310